Hurghada, Egypt

2:23 PM EET on June 24, 2017 (GMT +0200)
Hurghada

Weather History for HEGN - January, 2012

Change the Weather History Date:

Thursday, January 26, 2012

  Actual Average Record
Temperature  
Mean Temperature 64 °F -  
Max Temperature 72 °F 70 °F 83 °F (2014)
Min Temperature 55 °F 53 °F 44 °F (2016)
Degree Days  
Heating Degree Days 2    
Growing Degree Days 14 (Base 50)    
Moisture  
Dew Point 49 °F    
Average Humidity 61    
Maximum Humidity 88    
Minimum Humidity 36    
Precipitation  
Precipitation 0.00 in - - ()
Sea Level Pressure  
Sea Level Pressure 29.97 in    
Wind  
Wind Speed 6 mph ()    
Max Wind Speed 17 mph    
Max Gust Speed -    
Visibility 6.1 miles    
Events      
Averages and records for this station are not official NWS values.
T = Trace of Precipitation, MM = Missing Value Source: Averaged Metar Reports

Daily Weather History Graph

Daily Weather History Graph

Search for Another Location

Airport or City:

Trip Planner

Search our weather history database for the weather conditions in past years. The results will help you decide how hot, cold, wet, or windy it might be!

Date:

Astronomy

Jan. 26, 2012 Rise Set
Actual Time 6:33 AM EET 5:21 PM EET
Civil Twilight 6:09 AM EET 5:46 PM EET
Nautical Twilight 5:41 AM EET 6:14 PM EET
Astronomical Twilight 5:13 AM EET 6:42 PM EET
Moon 8:13 AM EET (1/26) 8:28 PM EET (1/26)
Length of Visible Light 11h 36m
Length of Day
10h 47m
Waxing Crescent, 10% of the Moon is Illuminated
Jan 26
Waxing Crescent
Jan 31
First Quarter
Feb 7
Full
Feb 14
Last Quarter
Feb 22
New

Hourly Weather History & Observations

Time (EET) Temp. Dew Point Humidity Pressure Visibility Wind Dir Wind Speed Gust Speed Precip Events Conditions
12:00 AM 59.0 °F 53.6 °F 82% 29.92 in - Calm Calm - N/A   Clear
1:00 AM 53.6 °F 50.0 °F 88% 29.92 in - Calm Calm - N/A   Clear
2:00 AM 58 °F 54 °F 80% 29.94 in 6 mi North 2.3 mph - -  
2:00 AM 57.2 °F 53.6 °F 88% 29.92 in - North 2.3 mph - N/A   Clear
3:00 AM 57.2 °F 53.6 °F 88% 29.92 in - Calm Calm - N/A   Clear
4:00 AM 55.4 °F 51.8 °F 88% 29.92 in - West 4.6 mph - N/A   Clear
5:00 AM 55.4 °F 51.8 °F 88% 29.92 in - West 4.6 mph - N/A   Clear
6:00 AM 57.2 °F 53.6 °F 88% 29.95 in - WNW 11.5 mph - N/A   Clear
7:00 AM 57.2 °F 46.4 °F 67% 29.98 in 6.2 mi WNW 15.0 mph - N/A   Scattered Clouds
8:00 AM 58 °F 46 °F 54% 30.01 in 6 mi WNW 12.7 mph - -   Scattered Clouds
8:00 AM 59.0 °F 46.4 °F 63% 30.01 in 6.2 mi WNW 12.7 mph - N/A   Partly Cloudy
9:00 AM 64.4 °F 39.2 °F 40% 30.01 in - WNW 12.7 mph - N/A   Clear
10:00 AM 68.0 °F 42.8 °F 40% 30.04 in - NNW 12.7 mph - N/A   Clear
11:00 AM 69.8 °F 44.6 °F 40% 30.01 in - North 17.3 mph - N/A   Clear
12:00 PM 69.8 °F 50.0 °F 49% 29.98 in - North 17.3 mph - N/A   Clear
1:00 PM 71.6 °F 48.2 °F 43% 29.98 in - North 15.0 mph - N/A   Clear
2:00 PM 72 °F 51 °F 36% 29.96 in 6 mi NE 13.8 mph - -  
2:00 PM 71.6 °F 50.0 °F 46% 29.95 in - NE 13.8 mph - N/A   Clear
3:00 PM 71.6 °F 48.2 °F 43% 29.95 in - North 9.2 mph - N/A   Clear
4:00 PM 71.6 °F 48.2 °F 43% 29.98 in - North 10.4 mph - N/A   Clear
5:00 PM 71.6 °F 48.2 °F 43% 29.98 in - North 11.5 mph - N/A   Clear
6:00 PM 68.0 °F 50.0 °F 52% 29.98 in - North 10.4 mph - N/A   Clear
7:00 PM 64.4 °F 50.0 °F 59% 30.01 in - West 4.6 mph - N/A   Clear
8:00 PM 61 °F 48 °F 53% 30.03 in 6 mi WSW 5.8 mph - -  
8:00 PM 60.8 °F 48.2 °F 63% 30.01 in - WSW 5.8 mph - N/A   Clear